"Pseudo-MPEC" for P10Lo1B

Created 2019 Jan 15 15:18:24 UT using Find_Orb

Click here for an explanation of pseudo-MPECs

 
 Astrometry: 
     P10Lo1B  C2019 01 10!Lb;*!8l-hlslC4^Cg]8*Mq,(Q?p,kXHOYAstrometry:BA(D3UjF51
     P10Lo1B  C2019 01 10;^Tgj])uVT(!2*PFDLAp.\:?%h'redacted;j'`8[M]r0X(d`)QDF51
     P10Lo1B  C2019 01 101Z+%S0nZUHa;`ChCoRVx=p'H;oy)0KRu_]9HHs#p[1X`T'8d%/[aF51
     P10Lo1B  C2019 01 10i2;Ooph=;@iv8.R.6EsoTTV@Pg*/-tu#Ikskbk,)clickZ]u4ENwF51
     P10Lo1B  C2019 01 11.32016 09 51 38.14 +13 30 11.6    ~1B8I 21.1 GVNEOCPI52
     P10Lo1B  C2019 01 11.32349 09 51 37.13 +13 30 07.5    ~1B8I 21.9 GVNEOCPI52
     P10Lo1B  C2019 01 11.32681 09 51 36.08 +13 30 03.6    ~1B8I 21.6 GVNEOCPI52
     P10Lo1B KC2019 01 11a!.N,q\m_)^2tFW)l=Yca#D4MOoQ7q_?#W!]J:fbL`b*@lv8KV!2H21
     P10Lo1B KC2019 01 119@fx_C/;3UFu\,^heref'*?/r@u,sunj-v1_\ToQ5\,[2hBJ.#T$H21
     P10Lo1B KC2019 01 11i3QlW8hhx$wGU2]Go^i?GlMKhj^(:N;E@s^b;6g87B$t8Ljw;cDbH21
     P10Lo1B ^C2019 01 11.37949109 51 20.432+13 28 52.34   ~1BKI 21.49GVNEOCP568
     P10Lo1B ^C2019 01 11.38044009 51 20.130+13 28 51.03   ~1BKI 21.41GVNEOCP568
     P10Lo1B ^C2019 01 11.38138709 51 19.829+13 28 49.75   ~1BKI 21.50GVNEOCP568
     P10Lo1B  C2019 01 12.32756 09 46 29.96 +13 06 45.1    ~1C8I 21.7 GVNEOCPI52
     P10Lo1B  C2019 01 12.33089 09 46 28.87 +13 06 39.8    ~1C8I 20.3 GVNEOCPI52
     P10Lo1B KC2019 01 150fq%ekx#Sn9@,*=1%U]I,R2PnIFE+Lh;l_@WPs[]forgNXMYu88*691
     P10Lo1B KC2019 01 15vwgu(m=w_qq,D,D1Z9mQQ+5'FL/tn_q55S)R*B/!9oFE91ZoJ'F3691
     P10Lo1B KC2019 01 150+XFt1)M;%6qs+=y(RnSZo/GQlZm8h$wF$rexplanation2aE'f[691

Station data:
(568) Mauna Kea  (N19.826116 W155.472200)  US/Hawaii.
(691) Steward Observatory, Kitt Peak - Spacewatch  (N31.962174 W111.600327)
   US/Arizona.  Observer J. V. Scotti. 0.9-m f/3 reflector + CCD.
(F51) Pan-STARRS 1, Haleakala  (N20.707235 W156.255910)  US/Hawaii.
   Observers N. Primak, A. Schultz, S. Watters, J. Thiel, T. Goggia. Measurer
   PS1 Science Consortium. 1.8-m Ritchey-Chrétien + CCD.
(H21) Astronomical Research Observatory, Westfield  (N39.483057 W87.968270)
   US/Illinois. 0.76-m f/3.0 astrograph + CCD.
(I52) Steward Observatory, Mt. Lemmon Station  (N32.442547 W110.788920)
   US/Arizona.  Observers B. M. Africano, E. J. Christensen, G. A. Farneth,
   D. C. Fuls, A. R. Gibbs, A. D. Grauer, H. Groeller, J. A. Johnson, R. A.
   Kowalski, S. M. Larson, G. J. Leonard, R. L. Seaman, F. C. Shelly. 1.0-m
   reflector + CCD.

Orbital elements:  P10Lo1B
   Perihelion 2018 Oct 28.515465 +/- 0.0384 TT = 12:22:16 (JD 2458420.015465)
Epoch 2019 Jan 15.0 TT = JDT 2458498.5   Earth MOID: 0.0273   AutoNEOCP
M  30.07538473 +/- 0.34             (J2000 ecliptic)
n   0.38320141 +/- 0.00423          Peri.   81.44846 +/- 0.07
a   1.87723214 +/- 0.0138           Node   299.72868 +/- 0.044
e   0.6147209 +/- 0.0036            Incl.   18.91807 +/- 0.16
P   2.57/939.44d           H 22.3   G  0.15   U  9.1  
q 0.72325816 +/- 0.00143    Q 3.03120611 +/- 0.0288
From 18 observations 2019 Jan. 10-15; mean residual 0".26
Residuals in arcseconds: 
190110 F51  .15+  .00     190111 I52  .08+  .60+    190111 568  .12-  .14+    
190110 F51  .15+  .02-    190111 H21  .07+  .19+    190112 I52  .64+  .19+    
190110 F51  .03-  .13-    190111 H21  .00   .09-    190112 I52  .15-  .57-    
190110 F51  .06+  .07-    190111 H21  .12-  .26+    190115 691  .23+  .02-    
190111 I52  .60-  .70-    190111 568  .02-  .10+    190115 691  .09-  .21+    
190111 I52  .05+  .14-    190111 568  .08-  .11+    190115 691  .18-  .15-    

Ephemerides (geocentric):
Date (UTC) HH   RA              Dec         delta   r     elong  mag " sig PA
---- -- -- --  -------------   -----------  ------ ------ -----  --- ---- ---
2019 01 15 15  09 30 25.330   +11 54 28.97  .36504 1.3208 153.7 21.7 .165  17
2019 01 15 16  09 30 13.617   +11 53 36.80  .36528 1.3212 153.8 21.7 .173  16
2019 01 15 17  09 30 01.916   +11 52 44.70  .36553 1.3216 153.8 21.7 .183  16
2019 01 15 18  09 29 50.228   +11 51 52.67  .36577 1.3220 153.9 21.7 .192  15
2019 01 15 19  09 29 38.552   +11 51 00.72  .36602 1.3224 154.0 21.7 .201  14
2019 01 15 20  09 29 26.888   +11 50 08.83  .36626 1.3228 154.1 21.7 .211  14
2019 01 15 21  09 29 15.236   +11 49 17.02  .36651 1.3232 154.2 21.7 .220  13
2019 01 15 22  09 29 03.596   +11 48 25.27  .36676 1.3236 154.2 21.7 .230  13
2019 01 15 23  09 28 51.969   +11 47 33.60  .36700 1.3240 154.3 21.7 .240  12
2019 01 16 00  09 28 40.354   +11 46 42.00  .36725 1.3244 154.4 21.7 .250  12
2019 01 16 01  09 28 28.751   +11 45 50.47  .36750 1.3248 154.5 21.7 .261  11
2019 01 16 02  09 28 17.160   +11 44 59.02  .36775 1.3252 154.6 21.7 .271  11
2019 01 16 03  09 28 05.582   +11 44 07.63  .36800 1.3256 154.6 21.7 .282  10
2019 01 16 04  09 27 54.016   +11 43 16.32  .36825 1.3260 154.7 21.7 .293  10
2019 01 16 05  09 27 42.462   +11 42 25.07  .36850 1.3264 154.8 21.7 .303  10
2019 01 16 06  09 27 30.921   +11 41 33.90  .36875 1.3268 154.9 21.7 .314   9
2019 01 16 07  09 27 19.392   +11 40 42.80  .36900 1.3272 155.0 21.7 .326   9
2019 01 16 08  09 27 07.876   +11 39 51.78  .36925 1.3276 155.0 21.7 .337   9
2019 01 16 09  09 26 56.371   +11 39 00.82  .36950 1.3280 155.1 21.7 .348   9
2019 01 16 10  09 26 44.880   +11 38 09.94  .36975 1.3284 155.2 21.7 .360   8
2019 01 16 11  09 26 33.400   +11 37 19.13  .37001 1.3288 155.3 21.7 .372   8
2019 01 16 12  09 26 21.933   +11 36 28.39  .37026 1.3292 155.3 21.7 .384   8
2019 01 16 13  09 26 10.479   +11 35 37.72  .37051 1.3296 155.4 21.7 .396   8
2019 01 16 14  09 25 59.037   +11 34 47.13  .37077 1.3300 155.5 21.7 .408   8
2019 01 16 15  09 25 47.608   +11 33 56.61  .37102 1.3304 155.6 21.7 .420   7
2019 01 16 16  09 25 36.191   +11 33 06.16  .37128 1.3308 155.7 21.7 .433   7
2019 01 16 17  09 25 24.786   +11 32 15.78  .37153 1.3312 155.7 21.7 .445   7
2019 01 16 18  09 25 13.394   +11 31 25.48  .37179 1.3316 155.8 21.7 .458   7
2019 01 16 19  09 25 02.015   +11 30 35.25  .37205 1.3320 155.9 21.7 .471   7
2019 01 16 20  09 24 50.648   +11 29 45.09  .37230 1.3324 156.0 21.7 .484   7
2019 01 16 21  09 24 39.293   +11 28 55.00  .37256 1.3328 156.0 21.7 .497   6
2019 01 16 22  09 24 27.952   +11 28 04.99  .37282 1.3332 156.1 21.7 .511   6
2019 01 16 23  09 24 16.622   +11 27 15.05  .37308 1.3336 156.2 21.7 .524   6
2019 01 17 00  09 24 05.306   +11 26 25.19  .37334 1.3340 156.3 21.7 .538   6
2019 01 17 01  09 23 54.002   +11 25 35.39  .37360 1.3344 156.4 21.7 .551   6
2019 01 17 02  09 23 42.710   +11 24 45.67  .37386 1.3348 156.4 21.7 .565   6
2019 01 17 03  09 23 31.432   +11 23 56.02  .37412 1.3352 156.5 21.7 .579   6
2019 01 17 04  09 23 20.166   +11 23 06.45  .37438 1.3356 156.6 21.7 .593   6
2019 01 17 05  09 23 08.912   +11 22 16.95  .37464 1.3360 156.7 21.7 .608   6
2019 01 17 06  09 22 57.672   +11 21 27.52  .37490 1.3364 156.7 21.7 .622   6
2019 01 17 07  09 22 46.443   +11 20 38.17  .37516 1.3368 156.8 21.7 .637   5
2019 01 17 08  09 22 35.228   +11 19 48.89  .37543 1.3372 156.9 21.7 .651   5
2019 01 17 09  09 22 24.026   +11 18 59.68  .37569 1.3376 157.0 21.7 .666   5
2019 01 17 10  09 22 12.836   +11 18 10.55  .37595 1.3380 157.0 21.7 .681   5
2019 01 17 11  09 22 01.658   +11 17 21.49  .37622 1.3384 157.1 21.7 .696   5
2019 01 17 12  09 21 50.494   +11 16 32.50  .37648 1.3387 157.2 21.7 .711   5
2019 01 17 13  09 21 39.342   +11 15 43.59  .37675 1.3391 157.3 21.7 .727   5
2019 01 17 14  09 21 28.203   +11 14 54.75  .37701 1.3395 157.3 21.7 .742   5